RH
23 26 27 22 20 20 20 20 20 15 12 15 17 15 12 11 10 11 11 11 11 12 16 28 36 40 45 47 49 53 55 56 57 53 41 29 43 45 49 55 57 60 66 70
24 27 21 18 18 19 19 22 21 15 13 14 15 16 13 12 11 11 11 12 12 17 25 31 35 39 44 45 49 51 50 54 56 56 54 50 39 38 41 51 51 57 66 74
26 19 14 19 20 18 18 21 20 19 16 14 18 18 13 10 10 9 10 13 23 28 31 33 35 38 42 43 49 50 51 53 56 61 58 56 52 47 50 47 50 53 63 72
31 23 21 23 26 20 25 18 19 20 20 24 12 18 12 12 13 13 18 26 31 35 35 34 35 38 41 42 49 53 56 58 57 61 61 63 65 57 37 40 43 52 61 72
38 33 32 31 30 24 25 19 19 19 22 20 17 18 15 11 12 18 27 35 38 39 39 38 37 38 39 42 48 55 61 61 63 67 70 71 69 65 62 51 50 47 56 73
26 22 26 21 18 18 18 20 20 20 20 29 20 19 16 11 11 18 41 40 42 41 39 38 37 38 39 44 51 58 62 64 70 74 79 82 84 84 76 71 58 53 52 65
29 29 26 21 30 24 21 27 38 36 36 35 17 16 16 20 32 31 42 41 42 40 39 39 38 39 42 48 53 58 64 71 76 80 83 86 90 90 89 82 74 66 58 67
59 75 29 24 26 30 28 28 41 73 50 39 19 24 27 43 45 43 41 41 37 38 38 37 38 41 44 50 55 64 72 78 80 84 88 93 97 97 95 90 80 70 66 64
53 47 34 25 22 23 24 37 24 41 42 40 32 26 45 52 49 51 48 40 40 38 37 39 39 42 46 51 58 70 80 84 86 92 96 99 100 99 99 99 94 81 69 69
42 73 35 28 24 22 23 26 49 35 45 39 24 22 23 67 69 56 50 44 40 37 37 40 40 44 49 54 60 72 81 87 92 97 99 100 100 100 100 100 100 91 74 71
35 40 42 33 32 29 30 30 29 28 38 51 47 32 52 73 58 53 43 41 39 38 39 41 42 46 51 58 64 72 82 90 96 100 100 100 99 100 100 100 100 93 80 73
42 48 61 43 25 26 25 28 28 46 39 28 25 22 45 50 44 43 42 40 37 39 41 42 44 49 54 61 68 74 84 94 100 100 100 100 99 100 100 100 94 78 76 76
50 55 56 37 29 29 30 27 26 28 31 39 48 32 46 41 40 45 36 38 40 44 46 45 45 51 59 66 73 80 85 97 100 97 100 100 100 100 100 100 98 96 83 78
32 35 33 31 25 29 37 25 25 32 59 38 27 21 30 33 27 23 32 44 44 48 53 53 52 55 62 69 77 85 90 97 99 99 100 100 100 100 100 100 100 100 100 99
35 44 30 26 21 20 26 27 28 29 35 45 32 36 27 23 23 35 48 45 47 57 58 61 63 65 69 76 82 87 95 99 100 98 99 100 99 100 98 100 100 100 100 100
41 51 45 38 26 25 28 23 20 20 24 24 21 28 21 22 36 48 56 56 60 65 67 67 71 84 88 90 88 92 95 99 99 99 99 100 100 100 99 100 100 99 100 100
46 45 48 48 25 27 33 25 21 19 18 21 44 32 41 50 77 60 61 63 70 74 77 81 90 93 95 96 98 97 99 99 98 99 99 100 100 100 100 100 97 98 100 100
42 43 42 44 44 48 41 39 44 43 36 34 49 53 63 78 72 71 73 75 79 86 88 92 93 95 98 99 98 98 99 99 98 98 98 98 99 99 99 100 98 99 99 100
32 35 47 52 41 31 46 83 83 85 61 71 72 70 73 70 70 82 75 82 92 96 95 96 98 98 98 99 98 99 98 98 96 98 99 99 99 99 99 98 98 99 99 98
35 34 44 47 55 56 94 63 53 70 79 71 65 66 76 81 90 91 90 92 94 96 97 97 98 98 97 99 98 95 95 95 97 99 99 99 100 100 100 100 99 99 98 98
64 55 56 54 66 80 68 79 70 92 92 77 74 88 78 89 91 95 95 95 96 97 98 98 92 88 90 91 87 94 96 98 99 99 100 100 100 99 99 100 99 99 99 98
58 63 69 68 88 84 73 68 84 93 86 83 94 97 88 92 94 94 94 94 94 94 91 68 61 72 76 76 75 75 90 96 96 96 98 100 100 100 100 100 99 99 99 98
83 87 92 83 88 85 76 90 91 93 88 89 88 92 89 91 93 94 94 94 94 86 54 47 48 52 57 60 56 62 63 76 85 86 88 92 94 98 93 93 93 94 89 92
76 62 78 74 83 85 82 78 90 89 89 90 91 90 92 92 93 93 93 92 81 55 47 44 46 49 54 55 57 55 48 46 54 61 66 72 76 87 88 87 88 92 94 92
67 60 64 77 77 80 75 81 85 91 90 91 93 93 92 90 92 91 91 87 60 53 49 47 49 52 57 61 64 64 63 58 54 56 58 60 62 64 77 93 91 88 94 93
70 86 83 91 75 76 85 82 85 88 92 89 86 92 94 89 91 90 89 71 64 59 52 48 48 49 58 69 74 79 76 75 72 68 68 72 70 68 67 67 89 98 84 88
Wind_Speed
18 16 22 22 23 25 24 25 26 21 15 13 18 22 21 20 20 17 17 15 14 12 6 3 2 4 7 9 11 12 12 11 11 12 14 19 23 26 27 30 28 28 28 27
21 23 24 24 24 23 24 24 26 22 20 18 20 24 21 21 18 17 16 13 9 5 5 4 4 7 9 10 12 14 14 14 13 13 14 17 23 22 28 28 29 31 28 29
26 25 24 17 25 25 25 25 23 23 19 15 18 25 25 23 25 19 14 2 10 4 1 2 5 8 10 12 13 15 16 17 16 17 17 18 21 27 26 27 29 29 32 33
23 25 25 20 20 22 23 21 22 20 18 16 20 16 11 9 10 7 11 9 9 5 2 5 7 10 12 12 13 15 16 18 19 19 19 19 21 24 26 27 29 30 32 33
23 19 22 22 25 20 21 19 16 18 17 20 22 14 16 21 16 16 13 11 5 3 5 8 10 14 15 16 16 17 18 18 19 20 20 22 23 24 27 31 30 30 30 34
27 13 15 18 17 22 20 15 16 18 16 16 22 19 16 13 14 19 15 8 2 6 8 10 12 15 16 17 18 19 19 20 21 21 21 22 26 27 28 29 32 28 30 29
22 19 19 13 12 11 15 15 13 11 12 15 19 17 15 11 19 14 15 8 5 7 9 10 12 15 19 21 21 22 22 24 24 24 24 25 26 28 31 32 32 33 27 27
10 9 19 13 18 14 14 15 9 7 12 11 7 8 3 16 15 12 10 5 6 9 10 11 13 16 18 20 21 23 24 27 27 27 27 27 27 28 31 33 35 34 31 32
7 11 8 6 5 4 8 18 13 11 18 11 9 4 8 10 11 9 9 8 10 11 12 13 14 16 18 20 22 22 23 26 26 27 29 29 28 29 32 35 37 39 38 31
6 5 13 9 5 7 8 7 6 6 10 17 14 16 8 15 11 8 5 5 7 9 11 13 13 19 20 22 23 24 24 26 28 28 28 28 32 34 35 36 39 42 39 37
4 7 7 4 10 11 7 9 6 6 7 6 11 5 10 13 7 5 5 4 7 10 10 11 12 18 19 22 24 25 26 28 29 30 33 32 33 32 31 34 38 40 39 36
1 4 6 12 5 3 8 11 13 9 13 13 13 14 11 7 5 3 4 4 8 9 11 11 13 18 20 22 23 24 25 27 30 32 32 33 31 29 24 25 13 26 33 31
12 7 7 10 8 8 9 13 13 12 12 16 13 7 9 6 4 4 2 6 9 10 12 13 13 16 21 22 23 24 25 27 32 36 31 29 26 27 27 26 14 19 21 24
1 11 11 9 6 6 6 14 13 14 10 15 16 18 10 6 10 16 10 6 8 9 11 12 13 15 21 22 22 24 26 28 29 29 29 29 32 28 23 20 17 13 11 7
3 9 11 13 15 7 10 9 13 16 17 16 15 17 17 19 18 9 5 6 7 8 9 12 13 14 20 22 24 26 27 28 29 26 29 34 32 30 30 24 27 22 19 18
3 4 5 11 10 12 15 16 17 19 19 21 21 21 18 17 9 3 5 5 5 6 10 12 14 17 19 24 25 25 26 29 28 26 28 30 32 30 28 32 37 35 32 26
7 5 4 9 4 8 11 16 19 21 19 17 14 15 9 14 3 3 4 5 5 7 10 12 12 16 20 22 22 23 24 24 26 28 31 33 33 36 35 32 41 36 36 39
7 7 5 4 2 9 2 8 9 9 8 9 10 10 11 8 10 9 8 6 7 9 9 10 14 17 19 19 21 21 22 25 28 31 32 32 31 33 34 36 36 34 34 41
8 8 6 7 10 9 8 4 3 4 8 2 6 2 6 9 11 9 8 9 8 8 10 11 13 15 16 19 21 21 24 27 29 30 31 33 33 33 35 36 34 33 38 39
9 11 8 5 8 6 5 4 6 2 10 3 5 4 7 8 5 5 8 8 8 10 10 12 14 15 18 21 20 23 25 28 29 29 30 32 33 34 34 32 33 32 35 34
6 8 11 10 6 2 4 7 2 5 4 8 7 5 8 2 5 10 8 8 10 9 9 10 13 16 19 20 21 23 25 27 26 29 30 33 34 33 33 33 33 32 32 32
6 6 6 6 5 6 11 2 4 5 4 5 7 9 14 13 10 10 9 8 10 10 10 10 13 15 18 21 22 22 23 22 23 26 30 32 32 33 33 32 32 33 30 31
2 2 3 4 4 5 6 7 5 5 5 6 8 11 13 12 10 10 9 9 11 10 10 12 14 16 19 21 22 20 18 20 20 23 25 28 32 31 31 34 33 30 30 29
3 1 1 6 6 7 6 7 7 8 8 8 9 11 11 11 10 10 8 8 9 10 11 13 15 18 20 21 23 22 20 19 20 22 22 23 24 29 32 29 31 32 31 26
3 2 4 4 7 7 7 7 7 9 9 10 10 10 11 11 10 10 9 9 10 11 12 14 16 17 19 19 21 22 21 18 19 21 21 22 22 22 21 29 31 28 32 30
3 3 2 4 7 6 7 7 8 8 8 9 10 11 11 12 10 12 10 10 10 11 11 14 16 16 17 19 20 21 21 21 20 20 20 21 20 20 20 19 17 23 26 27
Wind_Direction
207 226 235 238 235 249 272 278 281 275 288 263 264 271 273 267 258 239 244 239 234 232 95 128 339 356 357 355 346 346 342 335 325 304 284 264 244 245 235 234 234 227 220 219
238 233 248 256 258 255 261 258 263 271 266 268 272 268 263 258 249 242 239 237 212 151 177 109 21 11 6 355 350 338 334 331 326 312 299 285 280 270 242 244 241 229 223 218
241 243 248 254 254 253 245 256 262 269 273 258 263 273 263 249 240 243 210 204 104 103 38 36 10 11 357 354 349 339 333 325 320 314 303 292 275 272 271 235 238 237 225 221
252 266 255 256 265 254 255 251 256 264 264 261 264 267 257 140 181 182 149 155 116 102 47 14 360 354 348 348 341 335 331 323 318 314 304 297 290 281 266 254 240 232 229 227
246 238 247 254 258 259 260 258 267 262 261 263 256 254 258 249 187 169 153 112 112 62 10 1 358 349 339 342 338 332 326 323 319 311 303 294 286 280 278 274 273 233 228 226
247 238 265 269 263 251 252 249 258 256 251 253 252 255 256 240 200 161 112 115 82 20 2 356 351 345 342 340 335 331 328 324 320 313 303 292 283 279 275 273 268 257 226 225
246 245 229 261 266 278 261 250 248 231 227 240 246 247 238 85 59 101 125 101 26 359 2 348 349 344 339 337 333 330 327 323 319 313 304 295 285 280 273 266 266 262 250 225
248 244 236 212 237 225 228 224 249 266 250 280 256 230 123 82 93 95 87 67 35 18 1 353 350 340 337 333 329 327 326 321 317 313 305 296 288 279 270 264 260 259 251 234
216 224 241 242 302 274 246 221 249 277 260 260 241 169 110 118 112 98 68 24 17 2 357 354 346 346 338 333 330 327 322 318 315 313 309 300 295 285 272 264 260 259 250 236
254 230 214 170 231 227 261 356 271 230 266 261 270 281 307 148 129 100 79 25 9 355 350 346 345 344 341 338 333 329 327 324 320 318 315 308 307 293 279 265 253 249 243 227
228 262 153 196 214 233 222 251 256 311 257 268 270 270 60 116 126 138 85 25 3 348 346 343 345 345 344 342 338 334 335 329 328 326 325 322 310 300 294 286 243 242 238 220
230 240 230 244 91 314 265 261 252 240 253 257 267 274 107 134 121 91 50 20 358 350 349 347 351 352 353 349 340 340 339 332 332 334 332 326 315 314 323 333 304 247 234 220
172 223 240 213 202 215 230 231 243 251 267 255 264 236 126 154 193 151 317 8 350 354 356 355 353 358 359 346 345 346 344 342 340 343 337 324 329 342 351 348 340 329 245 228
166 255 252 264 25 337 210 234 227 230 240 253 249 261 215 217 301 322 8 7 351 10 355 354 354 359 357 349 351 351 351 353 348 345 342 338 357 351 357 0 4 27 44 222
236 256 258 269 286 244 274 240 233 237 231 253 272 283 292 296 302 358 9 357 0 9 1 4 356 1 350 355 355 358 357 355 355 355 357 358 1 14 21 20 32 42 53 52
191 250 310 270 269 264 259 255 255 253 254 266 275 284 304 305 344 351 31 359 4 5 9 5 5 358 352 359 357 357 358 358 0 7 9 6 12 20 24 36 42 42 47 50
191 219 230 263 286 283 269 251 252 258 259 267 268 278 332 304 214 31 47 36 21 18 16 11 4 0 1 359 357 1 360 5 11 17 18 18 20 28 26 32 46 45 46 48
224 199 249 263 233 248 53 50 334 316 303 279 292 319 340 68 83 71 45 55 43 29 18 17 4 4 4 360 6 9 12 16 19 23 24 24 28 35 36 37 39 39 48 53
234 237 234 239 247 252 181 71 25 356 293 339 283 308 123 120 128 77 62 58 50 39 36 23 12 10 5 9 15 18 21 23 24 24 23 27 30 36 41 43 41 42 49 50
220 233 222 219 257 260 62 62 354 341 260 28 312 248 172 181 236 97 65 59 58 50 48 38 26 19 21 17 21 27 26 25 24 22 26 31 34 37 40 42 44 47 52 53
180 203 223 226 244 122 18 334 12 223 40 342 322 285 170 136 60 102 94 75 60 49 45 53 42 30 24 23 28 31 28 27 24 29 33 36 36 38 40 43 43 46 49 51
184 200 196 231 239 231 3 189 317 18 50 16 10 110 105 103 102 96 86 74 65 52 51 55 53 45 35 32 32 35 31 25 32 37 39 38 38 38 38 41 41 41 43 45
235 0 18 9 46 69 43 58 38 35 75 74 79 94 112 113 105 97 88 76 65 61 59 57 56 53 45 39 36 36 34 34 34 39 42 44 42 39 40 40 38 38 40 42
146 169 90 193 93 79 83 83 68 64 82 89 96 104 104 106 101 97 92 84 81 69 62 61 58 55 48 42 40 37 32 35 37 40 41 42 45 45 42 42 43 41 35 37
36 235 147 96 126 118 98 90 94 93 92 96 96 100 103 104 97 96 90 83 78 72 66 64 60 55 49 45 42 38 34 33 41 43 41 41 40 42 51 52 47 48 45 44
2 27 314 65 118 89 102 117 119 110 106 106 108 106 104 107 107 102 92 86 81 73 69 66 61 56 50 45 40 35 34 37 39 41 39 38 41 40 40 42 55 53 55 52